When you browse on this site, cookies collect data to enhance your experience and personalize the content and advertising you see.
Visit our Privacy Policy to learn more. By continuing to use the site, you agree to this use of cookies and data.
  • In Belgium
  • List of Countries
  • For 7 days
  • Water Temperature
  • Satellite Maps
  • Weather Map
  • Weather Widgets
  • user-avatar
    Login

    Hourly Weather Berchtesgaden

    Today, 23 February, Saturday

    Time Temperature Precipitation Wind Pressure Humidity
    00:00 +2°C° 0.1 mm 1 mps 719 mmHg 97%
    01:00 +1°C° 0.1 mm 1 mps 720 mmHg 97%
    02:00 0°C° 0 mm 0 mps 720 mmHg 97%
    03:00 -1°C° 0 mm 0 mps 720 mmHg 96%
    04:00 -1°C° 0 mm 0 mps 720 mmHg 96%
    05:00 -2°C° 0 mm 0 mps 720 mmHg 95%
    06:00 -3°C° 0 mm 0 mps 720 mmHg 94%
    07:00 -4°C° 0 mm 0 mps 720 mmHg 94%
    08:00 -1°C° 0 mm 1 mps 720 mmHg 86%
    09:00 +1°C° 0 mm 1 mps 720 mmHg 79%
    10:00 +2°C° 0 mm 1 mps 720 mmHg 71%
    11:00 +3°C° 0 mm 1 mps 720 mmHg 70%
    12:00 +4°C° 0 mm 1 mps 720 mmHg 68%
    13:00 +5°C° 0 mm 1 mps 719 mmHg 66%
    14:00 +4°C° 0 mm 1 mps 719 mmHg 68%
    15:00 +4°C° 0 mm 1 mps 719 mmHg 70%
    16:00 +4°C° 0 mm 1 mps 718 mmHg 71%
    17:00 +2°C° 0 mm 1 mps 719 mmHg 74%
    18:00 0°C° 0 mm 1 mps 719 mmHg 76%
    19:00 -2°C° 0 mm 1 mps 719 mmHg 78%
    20:00 -2°C° 0 mm 1 mps 719 mmHg 76%
    21:00 -2°C° 0 mm 1 mps 719 mmHg 75%
    22:00 -2°C° 0 mm 1 mps 720 mmHg 73%
    23:00 -2°C° 0 mm 1 mps 720 mmHg 70%

    Tomorrow, 24 February, Sunday

    Time Temperature Precipitation Wind Pressure Humidity
    00:00 -2°C° 0 mm 1 mps 719 mmHg 67%
    01:00 -2°C° 0 mm 1 mps 719 mmHg 64%
    02:00 -2°C° 0 mm 1 mps 719 mmHg 63%
    03:00 -2°C° 0 mm 1 mps 719 mmHg 62%
    04:00 -2°C° 0 mm 1 mps 719 mmHg 61%
    05:00 -2°C° 0 mm 1 mps 719 mmHg 61%
    06:00 -2°C° 0 mm 1 mps 719 mmHg 61%
    07:00 -2°C° 0 mm 1 mps 719 mmHg 61%
    08:00 +1°C° 0 mm 1 mps 719 mmHg 63%
    09:00 +2°C° 0 mm 0 mps 719 mmHg 65%
    10:00 +4°C° 0 mm 0 mps 720 mmHg 67%
    11:00 +5°C° 0 mm 0 mps 719 mmHg 69%
    12:00 +6°C° 0 mm 0 mps 719 mmHg 71%
    13:00 +7°C° 0 mm 0 mps 719 mmHg 73%
    14:00 +6°C° 0 mm 0 mps 719 mmHg 75%
    15:00 +6°C° 0 mm 0 mps 719 mmHg 78%
    16:00 +6°C° 0 mm 0 mps 719 mmHg 81%
    17:00 +5°C° 0 mm 1 mps 719 mmHg 81%
    18:00 +4°C° 0 mm 1 mps 719 mmHg 81%
    19:00 +2°C° 0 mm 1 mps 719 mmHg 81%
    20:00 +2°C° 0 mm 1 mps 720 mmHg 81%
    21:00 +2°C° 0 mm 1 mps 720 mmHg 81%
    22:00 +2°C° 0 mm 1 mps 720 mmHg 81%
    23:00 +2°C° 0 mm 1 mps 720 mmHg 81%

    Day after tomorrow, 25 February, Monday

    Time Temperature Precipitation Wind Pressure Humidity
    00:00 +2°C° 0 mm 1 mps 720 mmHg 81%
    01:00 +2°C° 0 mm 1 mps 720 mmHg 82%
    02:00 +2°C° 0 mm 1 mps 720 mmHg 82%
    03:00 +2°C° 0 mm 1 mps 720 mmHg 83%
    04:00 +2°C° 0 mm 1 mps 719 mmHg 84%
    05:00 +3°C° 0 mm 1 mps 720 mmHg 85%
    06:00 +3°C° 0 mm 1 mps 720 mmHg 86%
    07:00 +4°C° 0 mm 1 mps 720 mmHg 86%
    08:00 +5°C° 0 mm 1 mps 720 mmHg 86%
    09:00 +5°C° 0 mm 0 mps 720 mmHg 86%
    10:00 +7°C° 0 mm 0 mps 720 mmHg 85%
    11:00 +7°C° 0 mm 0 mps 720 mmHg 85%
    12:00 +8°C° 0 mm 0 mps 720 mmHg 84%
    13:00 +9°C° 0 mm 1 mps 719 mmHg 84%
    14:00 +8°C° 0 mm 0 mps 719 mmHg 85%
    15:00 +8°C° 0 mm 0 mps 719 mmHg 86%
    16:00 +7°C° 0 mm 0 mps 719 mmHg 88%
    17:00 +7°C° 0 mm 1 mps 719 mmHg 89%
    18:00 +6°C° 0 mm 1 mps 719 mmHg 91%
    19:00 +5°C° 0 mm 1 mps 719 mmHg 93%
    20:00 +4°C° 0 mm 1 mps 719 mmHg 91%
    21:00 +3°C° 0 mm 1 mps 719 mmHg 90%
    22:00 +3°C° 0 mm 1 mps 719 mmHg 88%
    23:00 +2°C° 0 mm 1 mps 719 mmHg 86%

    26 February, Tuesday

    Time Temperature Precipitation Wind Pressure Humidity
    00:00 +1°C° 0 mm 2 mps 719 mmHg 85%
    01:00 +1°C° 0 mm 2 mps 719 mmHg 83%
    02:00 +1°C° 0 mm 2 mps 719 mmHg 80%
    03:00 +1°C° 0 mm 2 mps 718 mmHg 77%
    04:00 +1°C° 0 mm 2 mps 718 mmHg 74%
    05:00 +1°C° 0 mm 2 mps 718 mmHg 72%
    06:00 +1°C° 0 mm 2 mps 718 mmHg 69%
    07:00 +1°C° 0 mm 2 mps 718 mmHg 67%
    08:00 +4°C° 0 mm 1 mps 718 mmHg 70%
    09:00 +6°C° 0 mm 1 mps 718 mmHg 73%
    10:00 +8°C° 0 mm 1 mps 718 mmHg 77%
    11:00 +9°C° 0 mm 1 mps 718 mmHg 75%
    12:00 +9°C° 0 mm 0 mps 717 mmHg 74%
    13:00 +10°C° 0 mm 0 mps 717 mmHg 73%
    14:00 +10°C° 0 mm 0 mps 717 mmHg 75%
    15:00 +9°C° 0 mm 0 mps 717 mmHg 78%
    16:00 +9°C° 0 mm 0 mps 716 mmHg 80%
    17:00 +7°C° 0 mm 0 mps 717 mmHg 80%
    18:00 +7°C° 0 mm 1 mps 717 mmHg 79%
    19:00 +5°C° 0 mm 1 mps 717 mmHg 79%
    20:00 +5°C° 0 mm 1 mps 717 mmHg 78%
    21:00 +5°C° 0 mm 1 mps 717 mmHg 77%
    22:00 +3°C° 0 mm 2 mps 717 mmHg 76%
    23:00 +3°C° 0 mm 2 mps 717 mmHg 74%

    27 February, Wednesday

    Time Temperature Precipitation Wind Pressure Humidity
    00:00 +3°C° 0 mm 2 mps 717 mmHg 73%
    01:00 +3°C° 0 mm 2 mps 716 mmHg 71%
    02:00 +3°C° 0 mm 2 mps 716 mmHg 70%
    03:00 +3°C° 0 mm 2 mps 716 mmHg 69%
    04:00 +4°C° 0 mm 1 mps 715 mmHg 68%
    05:00 +3°C° 0 mm 2 mps 715 mmHg 67%
    06:00 +3°C° 0 mm 2 mps 715 mmHg 67%
    07:00 +3°C° 0 mm 2 mps 715 mmHg 67%
    08:00 +6°C° 0 mm 1 mps 715 mmHg 70%
    09:00 +8°C° 0 mm 1 mps 715 mmHg 73%
    10:00 +10°C° 0 mm 1 mps 715 mmHg 76%
    11:00 +11°C° 0 mm 1 mps 715 mmHg 75%
    12:00 +11°C° 0 mm 0 mps 714 mmHg 73%
    13:00 +12°C° 0 mm 0 mps 714 mmHg 72%
    14:00 +11°C° 0 mm 0 mps 714 mmHg 74%
    15:00 +11°C° 0 mm 0 mps 713 mmHg 76%
    16:00 +11°C° 0 mm 0 mps 713 mmHg 78%
    17:00 +10°C° 0 mm 1 mps 713 mmHg 79%
    18:00 +9°C° 0 mm 1 mps 713 mmHg 80%
    19:00 +6°C° 0 mm 2 mps 713 mmHg 81%
    20:00 +6°C° 0 mm 2 mps 713 mmHg 80%
    21:00 +6°C° 0 mm 2 mps 713 mmHg 78%
    22:00 +5°C° 0 mm 2 mps 713 mmHg 77%
    23:00 +5°C° 0 mm 2 mps 712 mmHg 75%

    28 February, Thursday

    Time Temperature Precipitation Wind Pressure Humidity
    00:00 +5°C° 0 mm 2 mps 712 mmHg 74%
    01:00 +5°C° 0 mm 2 mps 712 mmHg 73%
    02:00 +5°C° 0 mm 2 mps 712 mmHg 73%
    03:00 +5°C° 0 mm 2 mps 712 mmHg 73%
    04:00 +4°C° 0 mm 2 mps 712 mmHg 73%
    05:00 +4°C° 0 mm 2 mps 711 mmHg 74%
    06:00 +4°C° 0 mm 2 mps 711 mmHg 74%
    07:00 +4°C° 0 mm 2 mps 711 mmHg 75%
    08:00 +7°C° 0 mm 1 mps 711 mmHg 76%
    09:00 +9°C° 0 mm 1 mps 711 mmHg 78%
    10:00 +10°C° 0 mm 1 mps 711 mmHg 79%
    11:00 +11°C° 0 mm 1 mps 711 mmHg 77%
    12:00 +12°C° 0 mm 1 mps 710 mmHg 75%
    13:00 +13°C° 0 mm 1 mps 710 mmHg 73%
    14:00 +13°C° 0 mm 1 mps 709 mmHg 74%
    15:00 +13°C° 0 mm 1 mps 709 mmHg 75%
    16:00 +12°C° 0 mm 1 mps 709 mmHg 76%
    17:00 +11°C° 0 mm 1 mps 709 mmHg 78%
    18:00 +9°C° 0 mm 1 mps 709 mmHg 80%
    19:00 +8°C° 0 mm 1 mps 709 mmHg 82%
    20:00 +6°C° 0 mm 2 mps 709 mmHg 82%
    21:00 +6°C° 0 mm 2 mps 709 mmHg 83%
    22:00 +5°C° 0 mm 2 mps 709 mmHg 83%
    23:00 +5°C° 0 mm 2 mps 709 mmHg 84%
    Show more